Starlink 32423

operational
NORAD ID: 61218 Int'l Des: 2024-171 Owner: SPXS Country: US Constellation: starlink
LEOCIRCULAR

关于 Starlink 32423

正在加载描述...

实时位置

正在加载3D地球...

即将过境

高度历史

Altitude vs Time

uPlot chart will show altitude changes over time

两行轨道根数

1 61218U 24171U 25304.00902102 .00000043 00000-0 13587-4 0 9996
2 61218 53.1605 204.8081 0001412 76.7209 283.3949 15.30173368 63422
Epoch: Oct 31, 2025 • Age: 23 hours

当前状态

高度 492.0 km
速度 7.62 km/s
星下点 -46.32°S, 42.73°E
发射日期 Sep 20, 2024
运行时间 1.1 years
类型 internet

技术详情

分类 Payload
质量 730.00 kg
干质量 700.00 kg
总质量 730.00 kg
长度 0.30 m
直径 4.10 m
跨度 29.00 m
形状 Box + pan
制造商 SPXS
平台类型 Starlink V2M
阶段状态 In Orbit
所有者/国家 SPXS/US

大型星座

Loading constellations...